COSMOS 2361 1 25590U 98076A 12039.74137456 .00000029 00000-0 15765-4 0 8878 2 25590 82.9348 120.9993 0029995 279.5514 80.2250 13.72764913657634 COSMOS 2378 1 26818U 01023A 12039.14215874 .00000048 00000-0 35514-4 0 9240 2 26818 82.9302 146.4937 0031661 241.7318 118.0642 13.73776234534959 COSMOS 2389 1 27436U 02026A 12039.65538727 .00000033 00000-0 17949-4 0 6199 2 27436 82.9491 87.8193 0047588 124.3778 236.1891 13.74776454486766 COSMOS 2398 1 27818U 03023A 12039.31453161 .00000063 00000-0 52419-4 0 5106 2 27818 82.9441 37.4157 0032809 111.0465 249.4199 13.72001576434723 COSMOS 2407 1 28380U 04028A 12038.76366103 .00000063 00000-0 48468-4 0 3527 2 28380 82.9603 356.3225 0039609 150.1720 210.1711 13.75891097378966 COSMOS 2414 1 28521U 05002A 12039.57896962 .00000068 00000-0 43664-4 0 6417 2 28521 82.9451 46.8858 0040917 149.8269 210.5265 13.87404452357091 COSMOS 2429 1 32052U 07038A 12039.24545424 .00000058 00000-0 44557-4 0 22 2 32052 82.9802 108.5177 0040096 111.3785 249.1649 13.74739215221290 COSMOS 2454 1 35635U 09039A 12039.52539099 .00000062 00000-0 37947-4 0 2715 2 35635 82.9518 40.3250 0020289 130.8182 229.4747 13.89434092129465 COSMOS 2463 1 36519U 10017A 12039.79018859 .00000022 00000-0 76005-5 0 7811 2 36519 82.9629 140.1023 0034690 272.3563 87.3617 13.71280455 89468